Overview Statistics Trail Chart Weather Telemetry Raw packets
 

This is the latest recevied weather packets stored in our database for station/object SV1RVP-13. If no packets are shown the sender has not sent any weather packets the latest 10 day(s).

<< 44 45 46 47 48 49 50 >>
Time Temp. Humidity Pressure Rain* Wind** Luminosity Snow
1788011337 31.11° C 47% 1014.6 hPa 0 mm - - -
1788010723 31.11° C 47% 1014.5 hPa 0 mm - - -
1788010124 31.11° C 46% 1014.6 hPa 0 mm - - -
1788009517 30.56° C 48% 1014.7 hPa 0 mm - - -
1788008920 30.56° C 47% 1014.6 hPa 0 mm - - -
1788008313 30.56° C 48% 1014.7 hPa 0 mm - - -
1788007731 30.56° C 49% 1014.8 hPa 0 mm - - -
1788007125 30.56° C 50% 1015 hPa 0 mm - - -
1788006526 30.56° C 50% 1014.9 hPa 0 mm - - -
1788005917 31.67° C 48% 1015.1 hPa 0 mm - - -
1788005316 31.67° C 45% 1015.2 hPa 0 mm - - -
1788004708 31.67° C 45% 1015.2 hPa 0 mm - - -
1788004114 31.67° C 44% 1015.5 hPa 0 mm - - -
1788003522 31.11° C 45% 1015.5 hPa 0 mm - - -
1788002929 31.67° C 45% 1015.5 hPa 0 mm - - -
1788002321 31.11° C 45% 1015.5 hPa 0 mm - - -
1788001722 30.56° C 45% 1015.6 hPa 0 mm - - -
1788001136 30.56° C 45% 1015.7 hPa 0 mm - - -
1788000522 30.56° C 45% 1015.7 hPa 0 mm - - -
1787999906 30.56° C 45% 1015.9 hPa 0 mm - - -
1787999328 30.56° C 45% 1016 hPa 0 mm - - -
1787998725 30° C 46% 1016 hPa 0 mm - - -
1787998120 30° C 46% 1016.2 hPa 0 mm - - -
1787997507 29.44° C 46% 1016.3 hPa 0 mm - - -
1787996923 29.44° C 47% 1016.3 hPa 0 mm - - -

* Rain since midnight (hover to see other rain measurements)
** Current wind speed in m/s (hover to see current wind gust speed)